User: anonymous   Login
Location: Theydon Bois
(51.6750°N, 0.1050°E)
Time: 00:56:37
(UTC+01:00)
Language:

HJ-1C - Orbit

View from above orbital plane
View from above orbital plane
View from above satellite
View from above satellite

Ground track
Ground track

The orbit data is extracted from the following two-line orbital elements,

1 38997U 12064A   18110.55643704  .00001946  00000-0  51619-4 0  9990
2 38997  97.2314 142.8953 0010629   0.7290 151.9481 15.39494745304302
Epoch (UTC): 20 April 2018 13:21:16
Eccentricity: 0.0010629
inclination: 97.2314°
perigee height: 440 km
apogee height: 455 km
right ascension of ascending node: 142.8953°
argument of perigee: 0.7290°
revolutions per day: 15.39494745
mean anomaly at epoch: 151.9481°
orbit number at epoch: 30430

The dashed part of the orbit path shows where the satellite is in the earth's shadow,  

DLR